Time,TemperatureF,DewpointF,PressureIn,WindDirection,WindDirectionDegrees,WindSpeedMPH,WindSpeedGustMPH,Humidity,HourlyPrecipIn,Conditions,Clouds,dailyrainin,SoftwareType,DateUTC
2013-04-12 15:24:00,40.7,33.0,30.08,North,0,0.0,0.0,74,0.00,,,0.00,WUHU216HW,2013-04-12 20:24:00,
2013-04-12 15:25:00,40.7,33.0,30.08,North,0,0.0,0.0,74,0.00,,,0.00,WUHU216HW,2013-04-12 20:25:00,
2013-04-12 15:30:00,40.7,32.7,30.09,North,0,0.0,0.0,73,0.00,,,0.00,WUHU216HW,2013-04-12 20:30:00,
2013-04-12 15:35:00,41.0,32.7,30.08,North,0,0.0,0.0,72,0.00,,,0.00,WUHU216HW,2013-04-12 20:35:00,
2013-04-12 15:40:00,41.2,32.9,30.08,North,0,0.0,0.0,72,0.00,,,0.00,WUHU216HW,2013-04-12 20:40:00,
2013-04-12 15:45:00,41.0,33.0,30.08,North,0,0.0,0.0,73,0.00,,,0.00,WUHU216HW,2013-04-12 20:45:00,
2013-04-12 15:50:00,41.0,32.4,30.08,North,0,0.0,0.0,71,0.00,,,0.00,WUHU216HW,2013-04-12 20:50:00,
2013-04-12 15:55:00,41.2,33.2,30.09,North,0,0.0,0.0,73,0.00,,,0.00,WUHU216HW,2013-04-12 20:55:00,
2013-04-12 16:00:00,41.6,33.6,30.09,North,0,0.0,0.0,73,0.00,,,0.00,WUHU216HW,2013-04-12 21:00:00,
2013-04-12 16:05:00,41.4,33.4,30.09,North,0,0.0,0.0,73,0.00,,,0.00,WUHU216HW,2013-04-12 21:05:00,
2013-04-12 16:10:00,41.6,33.8,30.10,North,0,0.0,0.0,74,0.00,,,0.00,WUHU216HW,2013-04-12 21:10:00,
2013-04-12 16:15:00,41.8,33.8,30.10,North,0,0.0,0.0,73,0.00,,,0.00,WUHU216HW,2013-04-12 21:15:00,
2013-04-12 16:20:00,41.8,34.0,30.10,North,0,0.0,0.0,74,0.00,,,0.00,WUHU216HW,2013-04-12 21:20:00,
2013-04-12 16:25:00,41.8,33.8,30.10,North,0,0.0,0.0,73,0.00,,,0.00,WUHU216HW,2013-04-12 21:25:00,
2013-04-12 16:30:00,41.4,32.8,30.10,North,0,0.0,0.0,71,0.00,,,0.00,WUHU216HW,2013-04-12 21:30:00,
2013-04-12 16:35:00,41.0,33.0,30.10,North,0,0.0,0.0,73,0.00,,,0.00,WUHU216HW,2013-04-12 21:35:00,
2013-04-12 16:40:00,41.4,34.0,30.10,North,0,0.0,0.0,75,0.00,,,0.00,WUHU216HW,2013-04-12 21:40:00,
2013-04-12 16:45:00,41.6,33.8,30.11,North,0,0.0,0.0,74,0.00,,,0.00,WUHU216HW,2013-04-12 21:45:00,
2013-04-12 16:50:00,41.6,32.6,30.10,North,0,0.0,0.0,70,0.00,,,0.00,WUHU216HW,2013-04-12 21:50:00,
2013-04-12 16:55:00,41.4,32.8,30.11,North,0,0.0,0.0,71,0.00,,,0.00,WUHU216HW,2013-04-12 21:55:00,
2013-04-12 17:00:00,41.4,33.0,30.11,North,0,0.0,0.0,72,0.00,,,0.00,WUHU216HW,2013-04-12 22:00:00,
2013-04-12 17:05:00,41.4,32.8,30.11,North,0,0.0,0.0,71,0.00,,,0.00,WUHU216HW,2013-04-12 22:05:00,
2013-04-12 17:10:00,41.4,33.0,30.12,North,0,0.0,0.0,72,0.00,,,0.00,WUHU216HW,2013-04-12 22:10:00,
2013-04-12 17:15:00,41.4,33.7,30.12,North,0,0.0,0.0,74,0.00,,,0.00,WUHU216HW,2013-04-12 22:15:00,
2013-04-12 17:20:00,41.4,33.7,30.12,North,0,0.0,0.0,74,0.00,,,0.00,WUHU216HW,2013-04-12 22:20:00,
2013-04-12 17:25:00,41.4,33.7,30.12,North,0,0.0,0.0,74,0.00,,,0.00,WUHU216HW,2013-04-12 22:25:00,
2013-04-12 17:30:00,41.4,33.4,30.12,North,0,0.0,0.0,73,0.00,,,0.00,WUHU216HW,2013-04-12 22:30:00,
2013-04-12 17:35:00,41.2,33.2,30.12,North,0,0.0,0.0,73,0.00,,,0.00,WUHU216HW,2013-04-12 22:35:00,
2013-04-12 17:40:00,41.4,33.4,30.12,North,0,0.0,0.0,73,0.00,,,0.00,WUHU216HW,2013-04-12 22:40:00,
2013-04-12 17:45:00,41.6,33.8,30.12,North,0,0.0,0.0,74,0.00,,,0.00,WUHU216HW,2013-04-12 22:45:00,
2013-04-12 17:50:00,41.8,33.8,30.12,North,0,0.0,0.0,73,0.00,,,0.00,WUHU216HW,2013-04-12 22:50:00,
2013-04-12 17:55:00,41.6,33.2,30.12,North,0,0.0,0.0,72,0.00,,,0.00,WUHU216HW,2013-04-12 22:55:00,
2013-04-12 18:00:00,41.4,33.7,30.12,North,0,0.0,0.0,74,0.00,,,0.00,WUHU216HW,2013-04-12 23:00:00,
2013-04-12 18:05:00,41.2,33.5,30.12,North,0,0.0,0.0,74,0.00,,,0.00,WUHU216HW,2013-04-12 23:05:00,
2013-04-12 18:10:00,41.0,32.7,30.13,North,0,0.0,0.0,72,0.00,,,0.00,WUHU216HW,2013-04-12 23:10:00,
2013-04-12 18:15:00,40.9,33.1,30.13,North,0,0.0,0.0,74,0.00,,,0.00,WUHU216HW,2013-04-12 23:15:00,
2013-04-12 18:20:00,41.0,33.3,30.13,North,0,0.0,0.0,74,0.00,,,0.00,WUHU216HW,2013-04-12 23:20:00,
2013-04-12 18:25:00,40.9,33.1,30.12,North,0,0.0,0.0,74,0.00,,,0.00,WUHU216HW,2013-04-12 23:25:00,
2013-04-12 18:30:00,40.9,32.9,30.12,North,0,0.0,0.0,73,0.00,,,0.00,WUHU216HW,2013-04-12 23:30:00,
2013-04-12 18:35:00,40.7,33.0,30.13,North,0,0.0,0.0,74,0.00,,,0.00,WUHU216HW,2013-04-12 23:35:00,
2013-04-12 18:40:00,40.7,33.0,30.13,North,0,0.0,0.0,74,0.00,,,0.00,WUHU216HW,2013-04-12 23:40:00,
2013-04-12 18:45:00,40.7,33.3,30.13,North,0,0.0,0.0,75,0.00,,,0.00,WUHU216HW,2013-04-12 23:45:00,
2013-04-12 18:50:00,40.5,33.1,30.13,North,0,0.0,0.0,75,0.00,,,0.00,WUHU216HW,2013-04-12 23:50:00,
2013-04-12 18:55:00,40.3,32.9,30.13,North,0,0.0,0.0,75,0.00,,,0.00,WUHU216HW,2013-04-12 23:55:00,
2013-04-12 19:00:00,40.1,32.8,30.14,North,0,0.0,0.0,75,0.00,,,0.00,WUHU216HW,2013-04-13 00:00:00,
2013-04-12 19:05:00,40.0,32.9,30.14,North,0,0.0,0.0,76,0.00,,,0.00,WUHU216HW,2013-04-13 00:05:00,
2013-04-12 19:10:00,39.8,32.8,30.14,North,0,0.0,0.0,76,0.00,,,0.00,WUHU216HW,2013-04-13 00:10:00,
2013-04-12 19:15:00,39.6,32.7,30.14,North,0,0.0,0.0,76,0.00,,,0.00,WUHU216HW,2013-04-13 00:15:00,
2013-04-12 19:20:00,39.6,32.9,30.14,North,0,0.0,0.0,77,0.00,,,0.00,WUHU216HW,2013-04-13 00:20:00,
2013-04-12 19:25:00,39.6,32.9,30.14,North,0,0.0,0.0,77,0.00,,,0.00,WUHU216HW,2013-04-13 00:25:00,
2013-04-12 19:30:00,39.4,32.8,30.14,North,0,0.0,0.0,77,0.00,,,0.00,WUHU216HW,2013-04-13 00:30:00,
2013-04-12 19:35:00,39.2,32.3,30.14,North,0,0.0,0.0,76,0.00,,,0.00,WUHU216HW,2013-04-13 00:35:00,
2013-04-12 19:40:00,39.2,32.3,30.14,North,0,0.0,0.0,76,0.00,,,0.00,WUHU216HW,2013-04-13 00:40:00,
2013-04-12 19:45:00,39.2,32.3,30.14,North,0,0.0,0.0,76,0.00,,,0.00,WUHU216HW,2013-04-13 00:45:00,
2013-04-12 19:50:00,39.2,32.3,30.15,North,0,0.0,0.0,76,0.00,,,0.00,WUHU216HW,2013-04-13 00:50:00,
2013-04-12 19:55:00,39.1,32.1,30.15,North,0,0.0,0.0,76,0.00,,,0.00,WUHU216HW,2013-04-13 00:55:00,
2013-04-12 20:00:00,38.9,32.0,30.15,North,0,0.0,0.0,76,0.00,,,0.00,WUHU216HW,2013-04-13 01:00:00,
2013-04-12 20:05:00,38.9,32.3,30.15,North,0,0.0,0.0,77,0.00,,,0.00,WUHU216HW,2013-04-13 01:05:00,
2013-04-12 20:10:00,38.9,32.3,30.15,North,0,0.0,0.0,77,0.00,,,0.00,WUHU216HW,2013-04-13 01:10:00,
2013-04-12 20:15:00,38.7,32.1,30.16,North,0,0.0,0.0,77,0.00,,,0.00,WUHU216HW,2013-04-13 01:15:00,
2013-04-12 20:20:00,38.5,32.0,30.16,North,0,0.0,0.0,77,0.00,,,0.00,WUHU216HW,2013-04-13 01:20:00,
2013-04-12 20:25:00,38.5,32.0,30.16,North,0,0.0,0.0,77,0.00,,,0.00,WUHU216HW,2013-04-13 01:25:00,
2013-04-12 20:30:00,38.5,32.0,30.16,North,0,0.0,0.0,77,0.00,,,0.00,WUHU216HW,2013-04-13 01:30:00,
2013-04-12 20:35:00,38.5,32.0,30.17,North,0,0.0,0.0,77,0.00,,,0.00,WUHU216HW,2013-04-13 01:35:00,
2013-04-12 20:40:00,38.5,32.0,30.16,North,0,0.0,0.0,77,0.00,,,0.00,WUHU216HW,2013-04-13 01:40:00,
2013-04-12 20:45:00,38.3,31.8,30.17,North,0,0.0,0.0,77,0.00,,,0.00,WUHU216HW,2013-04-13 01:45:00,
2013-04-12 20:50:00,38.3,31.4,30.17,North,0,0.0,0.0,76,0.00,,,0.00,WUHU216HW,2013-04-13 01:50:00,
2013-04-12 20:55:00,38.3,31.4,30.17,North,0,0.0,0.0,76,0.00,,,0.00,WUHU216HW,2013-04-13 01:55:00,
2013-04-12 21:00:00,38.2,31.2,30.17,North,0,0.0,0.0,76,0.00,,,0.00,WUHU216HW,2013-04-13 02:00:00,
2013-04-12 21:05:00,38.2,31.6,30.18,North,0,0.0,0.0,77,0.00,,,0.00,WUHU216HW,2013-04-13 02:05:00,
2013-04-12 21:10:00,38.2,31.6,30.18,North,0,0.0,0.0,77,0.00,,,0.00,WUHU216HW,2013-04-13 02:10:00,
2013-04-12 21:15:00,38.0,31.4,30.18,North,0,0.0,0.0,77,0.00,,,0.00,WUHU216HW,2013-04-13 02:15:00,
2013-04-12 21:20:00,38.0,31.8,30.18,North,0,0.0,0.0,78,0.00,,,0.00,WUHU216HW,2013-04-13 02:20:00,
2013-04-12 21:25:00,38.0,31.8,30.18,North,0,0.0,0.0,78,0.00,,,0.00,WUHU216HW,2013-04-13 02:25:00,
2013-04-12 21:30:00,37.8,31.6,30.18,North,0,0.0,0.0,78,0.00,,,0.00,WUHU216HW,2013-04-13 02:30:00,
2013-04-12 21:35:00,37.8,31.2,30.19,North,0,0.0,0.0,77,0.00,,,0.00,WUHU216HW,2013-04-13 02:35:00,
2013-04-12 21:40:00,37.8,31.6,30.19,North,0,0.0,0.0,78,0.00,,,0.00,WUHU216HW,2013-04-13 02:40:00,
2013-04-12 21:45:00,37.8,31.6,30.19,North,0,0.0,0.0,78,0.00,,,0.00,WUHU216HW,2013-04-13 02:45:00,
2013-04-12 21:50:00,37.8,31.6,30.19,North,0,0.0,0.0,78,0.00,,,0.00,WUHU216HW,2013-04-13 02:50:00,
2013-04-12 21:55:00,37.8,31.6,30.19,North,0,0.0,0.0,78,0.00,,,0.00,WUHU216HW,2013-04-13 02:55:00,
2013-04-12 22:00:00,37.8,31.6,30.19,North,0,0.0,0.0,78,0.00,,,0.00,WUHU216HW,2013-04-13 03:00:00,
2013-04-12 22:05:00,37.8,31.6,30.19,North,0,0.0,0.0,78,0.00,,,0.00,WUHU216HW,2013-04-13 03:05:00,
2013-04-12 22:10:00,37.8,31.2,30.20,North,0,0.0,0.0,77,0.00,,,0.00,WUHU216HW,2013-04-13 03:10:00,
2013-04-12 22:15:00,37.8,31.6,30.20,North,0,0.0,0.0,78,0.00,,,0.00,WUHU216HW,2013-04-13 03:15:00,
2013-04-12 22:20:00,37.6,31.1,30.20,North,0,0.0,0.0,77,0.00,,,0.00,WUHU216HW,2013-04-13 03:20:00,
2013-04-12 22:25:00,37.6,31.4,30.20,North,0,0.0,0.0,78,0.00,,,0.00,WUHU216HW,2013-04-13 03:25:00,
2013-04-12 22:30:00,37.4,31.2,30.20,North,0,0.0,0.0,78,0.00,,,0.00,WUHU216HW,2013-04-13 03:30:00,
2013-04-12 22:35:00,37.4,31.5,30.20,North,0,0.0,0.0,79,0.00,,,0.00,WUHU216HW,2013-04-13 03:35:00,
2013-04-12 22:40:00,37.3,31.7,30.20,North,0,0.0,0.0,80,0.00,,,0.00,WUHU216HW,2013-04-13 03:40:00,
2013-04-12 22:45:00,37.1,31.5,30.20,North,0,0.0,0.0,80,0.00,,,0.00,WUHU216HW,2013-04-13 03:45:00,
2013-04-12 22:50:00,37.1,31.5,30.20,North,0,0.0,0.0,80,0.00,,,0.00,WUHU216HW,2013-04-13 03:50:00,
2013-04-12 22:55:00,37.1,31.5,30.19,North,0,0.0,0.0,80,0.00,,,0.00,WUHU216HW,2013-04-13 03:55:00,
2013-04-12 23:00:00,37.1,31.5,30.19,North,0,0.0,0.0,80,0.00,,,0.00,WUHU216HW,2013-04-13 04:00:00,
2013-04-12 23:05:00,36.9,31.6,30.19,North,0,0.0,0.0,81,0.00,,,0.00,WUHU216HW,2013-04-13 04:05:00,
2013-04-12 23:10:00,36.9,31.6,30.19,North,0,0.0,0.0,81,0.00,,,0.00,WUHU216HW,2013-04-13 04:10:00,
2013-04-12 23:15:00,36.9,31.6,30.20,North,0,0.0,0.0,81,0.00,,,0.00,WUHU216HW,2013-04-13 04:15:00,
2013-04-12 23:20:00,36.9,31.6,30.19,North,0,0.0,0.0,81,0.00,,,0.00,WUHU216HW,2013-04-13 04:20:00,
2013-04-12 23:25:00,36.9,31.6,30.20,North,0,0.0,0.0,81,0.00,,,0.00,WUHU216HW,2013-04-13 04:25:00,
2013-04-12 23:30:00,36.9,31.3,30.20,North,0,0.0,0.0,80,0.00,,,0.00,WUHU216HW,2013-04-13 04:30:00,
2013-04-12 23:35:00,36.9,31.3,30.20,North,0,0.0,0.0,80,0.00,,,0.00,WUHU216HW,2013-04-13 04:35:00,
2013-04-12 23:40:00,36.9,31.3,30.20,North,0,0.0,0.0,80,0.00,,,0.00,WUHU216HW,2013-04-13 04:40:00,
2013-04-12 23:45:00,36.9,31.3,30.20,North,0,0.0,0.0,80,0.00,,,0.00,WUHU216HW,2013-04-13 04:45:00,
2013-04-12 23:50:00,36.7,31.4,30.20,North,0,0.0,0.0,81,0.00,,,0.00,WUHU216HW,2013-04-13 04:50:00,
2013-04-12 23:55:00,36.7,31.4,30.20,North,0,0.0,0.0,81,0.00,,,0.00,WUHU216HW,2013-04-13 04:55:00,